Location: Bothwell
(41.7170°N, 112.2589°W)
Time: 02:22:16
(UTC+00:00)

Tiros 1 - Pass Details

Date: 18 May 2026
Orbit: 618 x 649 km, 48.4° (Epoch: 6 June)

Event Time Altitude Azimuth Distance (km) Brightness Sun altitude
Rises 11:42:54 0° 297° (WNW) 2,899 10.2 -4.6°
Reaches altitude 10° 11:45:14 10° 293° (WNW) 1,986 9.3 -4.3°
Maximum altitude 11:49:44 61° 214° (SW) 702 7.1 -3.6°
Drops below altitude 10° 11:54:11 10° 134° (SE) 1,971 9.9 -2.8°
Sets 11:56:30 0° 131° (SE) 2,873 10.8 -2.5°
